Orbital Elements at Epoch 2459200.5 (2020-Dec-17.0) TDB
Reference: JPL 33 (heliocentric ecliptic J2000)
Element | Value | Uncertainty (1-sigma) | Units |
e | .2013316842033995 | 2.1661e-08 | |
a | 2.79815096105838 | 1.333e-08 | au |
q | 2.234794515413135 | 6.4168e-08 | au |
i | 9.308297827462814 | 1.108e-06 | deg |
node | 113.2638208018012 | 4.356e-06 | deg |
peri | 184.3249811390537 | 4.1281e-06 | deg |
M | 294.8011022272749 | 6.1836e-06 | deg |
tp | 2459510.129899305954 (2021-Oct-22.62989931) | 3.05e-05 | TDB |
period | 1709.641843006335 4.68 | 1.2216e-05 3.345e-08 | d yr |
n | .210570419455197 | 1.5046e-09 | deg/d |
Q | 3.361507406703624 | 1.6013e-08 | au |
|
| | Orbit Determination Parameters
Additional Information
|